Dakar 2012 8ème étape

Dakar 2012 Argentine/Chili/Perou

Source : http://dakar.sport.francetv.fr/tous-les-classements

lundi 9 janvier : Liaison : 245 km Spécial : 477 km.

Classement de la 8ème étape Moto - Copiapó - Antofagasta

RangNuméroPilote/EquipageEquipeMarque - ModèleTempsRetard
1 001 COMA Marc KTM MRW RALLY DAKAR EAM KTM - 450 cc 05:03:52
2 008 FARIA Ruben TEAM RED BULL KTM KTM - 450 CC RALLY 05:10:52 00:07:00
3 003 RODRIGUES Helder TEAM YAMAHA RACING YAMAHA - WRF 450 05:11:02 00:07:10
4 023 BARREDA BORT Joan HUSQVARNA RALLYE TEAM BY SPEEDBRAIN HUSQVARNA - Rally 450 RR 05:12:36 00:08:44
5 032 SVITKO Stefan HANT LOGOMOTION SLOVAKIA KTM - 450 RR 05:13:01 00:09:09
6 002 DESPRES Cyril TEAM RED BULL KTM KTM - 450cc Rally 05:13:06 00:09:14
7 005 PEDRERO GARCIA Juan KTM MRW RALLY DAKAR EAM KTM - 450cc Rally 05:14:23 00:10:31
8 014 CASTEU David TEAM YAMAHA RACING YAMAHA - 450 WRF Rally 05:15:54 00:12:02
9 010 VILADOMS Jordi BORDONE-FERRARI KTM - Rally Replica 05:16:27 00:12:35
10 021 AUBERT JOHNNY KTM RALLY FACTORY TEAM KTM - 450 RALLY 05:17:42 00:13:50
11 020 FARRES GUELL Gerard BORDONE-FERRARI KTM - 450 RALLY REPLICA 05:19:15 00:15:23
12 034 BOTTURI ALESSANDRO BORDONE-FERRARI KTM - 450 RALLY REPLICA 05:19:28 00:15:36
13 006 ULLEVALSETER Pal Anders TEAM ULLEVALSETER KTM - 450 R 05:19:30 00:15:38
14 015 VERHOEVEN Frans SHERCO RALLY RAID - CROCOAVENTURES SHERCO - SR 450 05:20:22 00:16:30
15 016 PAIN Olivier TEAM YAMAHA RACING YAMAHA - 450 YZF Rally 05:21:44 00:17:52
16 007 GONCALVES Paulo HUSQVARNA RALLYE TEAM BY SPEEDBRAIN Husqvarna - Rally 450 RR 05:28:18 00:24:26
17 035 CECI Paolo BORDONE-FERRARI KTM - 450 RR 05:30:14 00:26:22
18 028 ZANOL FELIPE KTM BRASIL KTM - 450 Replica 05:32:42 00:28:50
19 025 GOUET Daniel TAMARUGAL HONDA RACING XC RALLY TEAM HONDA - CRF 450 X 05:32:45 00:28:53
20 022 DUCLOS Alain GIOFIL APRILIA APRILIA - RXV 4.5 Rally 05:34:44 00:30:52
21 050 SALVATIERRA Juan Carlos GHR HONDA HONDA - CRF450X 05:36:35 00:32:43
22 029 BERGLUND Thomas HUSABERG RALLY TEAM SCANDINAVIA HUSABERG - FE 450 05:37:50 00:33:58
23 012 PELLICER Jose Manuel HUSQVARNA RALLYE TEAM BY SPEEDBRAIN HUSQVARNA - Rally 450 RR 05:38:26 00:34:34
24 017 CZACHOR Jacek ORLEN TEAM KTM - 450 Replica 05:38:55 00:35:03
25 064 SCHRÖDER DANIEL MEMO TOURS - ALFIE COX TEAM KTM - 450cc 05:39:27 00:35:35
26 024 STANOVNIK Miran TEAM SUGAWARA KTM - 450 R 05:42:09 00:38:17
27 039 GYENES Emanuel VECTRA RACING KTM - 450 RR 05:44:58 00:41:06
28 089 NASCIMENTO DENISIO PETROBRAS LUBRAX HONDA - CRF 450 05:46:45 00:42:53
29 018 KNUIMAN Henk WIM MOTORS DAKAR KTM - 450 REPLICA 05:47:49 00:43:57
30 110 BIRCH Christopher MEMO TOURS - ALFIE COX TEAM KTM - 450 Replica 05:48:20 00:44:28
31 053 RODRIGUEZ Claudio TAMARUGAL HONDA RACING XC RALLY TEAM HONDA - CRF 450 X 05:48:54 00:45:02
32 144 CURTIS Darryl MEMO TOURS - ALFIE COX TEAM KTM - 450 Replica 05:50:25 00:46:33
33 033 BETHYS Thierry YAMAHA - 450 YZF Rally 05:54:53 00:51:01
34 145 NUTTALL Dean MEMO TOURS - ALFIE COX TEAM KTM - 450 Replica 05:55:41 00:51:49
35 066 LORMAND Etienne ROUSSILL'HOTEL - HFP YAMAHA - 450 WRF 05:57:26 00:53:34
36 042 PROHENS Jaime TAMARUGAL HONDA RACING XC RALLY TEAM HONDA - CRF 450X RALLY 05:57:29 00:53:37
37 026 RODRIGUES FILHO Jose helio HUSQVARNA RALLYE TEAM BY SPEEDBRAIN HUQSVARNA - RALLY 450 RR 06:00:41 00:56:49
38 049 DABROWSKI Marek ORLEN TEAM KTM - 450 RR 06:01:12 00:57:20
39 043 PISANO Michael MP CONCEPT KTM - 450 RR 06:02:21 00:58:29
40 041 PROHENS Felipe TAMARUGAL HONDA RACING XC RALLY TEAM HONDA (Transformada) - CRF450X RALLY 06:02:46 00:58:54
41 040 SERRADORI Mathieu KTM - 450 Rally 06:03:02 00:59:10
42 082 GUINDANI Vincent HFP YAMAHA - YZR 450 06:03:33 00:59:41
43 067 BALOOSHI MOHAMMED RED BULL KTM - 450 RR 06:05:54 01:02:02
44 148 GOMEZ Mauricio PACO GOMEZ RALLY TEAM YAMAHA - WR 450 06:08:30 01:04:38
45 068 BARROT David POWERBIKE YAMAHA IPONE YAMAHA - 450 IZF RALLY 06:10:47 01:06:55
46 138 LECOQ SEBASTIEN TEAM PERFORMANCE ENDURO YAMAHA - 450 YZFE 06:10:55 01:07:03
47 045 SANZ PLA-GILIBERT Eulalia GAS GAS GAS - GAS - EC 450 06:11:51 01:07:59
48 046 BIANCHI PRATA Pedro TEAM BIANCHI PRATA / VODAFONE HUSQUARNA - TE449 RALLY 06:11:53 01:08:01
49 062 SCHWARZ David HUSABERG RALLYE RACING AUSTRALIA HUSABERG - FE450 06:13:19 01:09:27
50 092 HAMARD Stephane REUNION RALLYE RAID KTM - 450 RR 06:14:30 01:10:38
51 154 GAJDOSECH ROBERTO ANTONIO ATUEL MOTOS YAMAHA - WR 450 06:15:22 01:11:30
52 057 WILLEMSEN Daniel TEAM HONDA EUROPE HONDA - CRF 450 X 06:16:10 01:12:18
53 159 CHITTICK Jamie GHR HONDA HONDA - CRF450X 06:16:53 01:13:01
54 048 LIEFHEBBER Hans-jos KTM - 450 RR 06:17:47 01:13:55
55 069 PAYEN Hugo YAMAHA - 450 WRF 06:19:14 01:15:22
56 056 MENARD Jean-Christophe HFP YAMAHA - 450 YZF 06:21:35 01:17:43
57 184 SAKIR SENKALAYCI TURKISH TEAM KTM - 450 RALLY EXC 06:21:49 01:17:57
58 051 ARREDONDO Francisco TEAM GUATEMALA KTM - 450 RALLY 06:23:16 01:19:24
59 061 MATTOS Dimas BRASIL MOTO TOUR KTM - 450 RR 06:25:24 01:21:32
60 071 BUTUZA Marcel BOANO HONDA - CRE F 450 X 06:26:13 01:22:21
61 077 PICCO Franco FRANCO PICCO RACING YAMAHA - WRF 450 06:26:51 01:22:59
62 172 LUCCHESE MANUEL HUSABERG FACTORY TEAM HUSABERG - FE 450 RALLY 06:27:23 01:23:31
63 183 RODRIGUEZ Pablo HONDA RACING ARGENTINA HONDA - CRF450X 06:28:44 01:24:52
64 060 WATT Stanley FRONT ROW GB / CRECENT KTM KTM - 450 RR 06:31:04 01:27:12
65 181 RIOS FELIPE KTM PERU RALLY TEAM KTM - Rally Replica 06:31:10 01:27:18
66 072 GOUNON SERGE EMS KTM - 450 RR 06:31:16 01:27:24
67 076 PEDERZOLI Claudio ON-OFF RACING TEAM YAMAHA - WR 450 06:33:58 01:30:06
68 098 BLONDEAU CHRISTOPHE TEAM FRANROC YAMAHA - YZF 450 06:35:34 01:31:42
69 168 GUIRAL DEMIAN AVANT MOTOS HONDA GENUINE OIL HONDA - CRF 450X 06:36:47 01:32:55
70 080 PASCUAL Pablo oscar JINCHENG TEAM JINCHENG - JC450Y 06:36:57 01:33:05
71 122 PALANTE Eric WIM MOTORS RACING DIVISION KTM - 450 RR FREVA 06:38:31 01:34:39
72 059 CIOTTI Filippo FRANCO PICCO RACING RIEJU - MRT 450 06:39:01 01:35:09
73 165 MULDER GEERT TEAM HONDA EUROPE HONDA - CFR 450 X 06:39:14 01:35:22
74 185 SANCHEZ MARCELO TEAM RPM KAWASAKI KAWASAKI - KLX 450 R 06:40:57 01:37:05
75 149 CIPKA DUSAN SLOVAKIA TURBOTEAM ZATKO BMW - G450X 06:41:38 01:37:46
76 073 BONY BRUNO EMS KTM - 450 RR 06:41:47 01:37:55
77 116 GEOFFROY Christophe TB RACING HONDA - F 450 XE 06:43:41 01:39:49
78 093 GOMEZ Jorge VEMOTOR CANARIAS Husqvarna - 450cc 06:47:03 01:43:11
79 081 SUESSE NED ADVRIDER/ NEDURO KTM - 450XCW 06:47:52 01:44:00
80 100 VESELY Jan CZECH DAKAR TEAM YAMAHA - WR 450F 06:48:29 01:44:37
81 174 MARTÍNEZ Paco PACO MARTINEZ KAWASAKI - KX450 06:49:48 01:45:56
82 164 DEMELCHORI DIEGO TEAM RPM KAWASAKI KAWASAKI - 2009 06:51:19 01:47:27
83 085 PENATE MUNOZ Pedro Manuel KH7 VALSEBIKE KTM - 450 06:52:56 01:49:04
84 091 TONETTI NICOLA TEAM BOANO HONDA - CRF 450 X 06:55:33 01:51:41
85 087 MEILLAT Christophe C.M PROMO KAWASAKI - KLX 450 R 06:58:05 01:54:13

Classement général Moto

RangNuméroPilote/EquipageEquipeMarque - ModèleTempsRetard
1 001 COMA Marc KTM MRW RALLY DAKAR EAM KTM - 450 cc 23:24:18
2 002 DESPRES Cyril TEAM RED BULL KTM KTM - 450cc Rally 23:25:44 00:01:26
3 003 RODRIGUES Helder TEAM YAMAHA RACING YAMAHA - WRF 450 24:13:19 00:49:01
4 014 CASTEU David TEAM YAMAHA RACING YAMAHA - 450 WRF Rally 24:34:10 01:09:52
5 007 GONCALVES Paulo HUSQVARNA RALLYE TEAM BY SPEEDBRAIN Husqvarna - Rally 450 RR 24:36:29 01:12:11
6 010 VILADOMS Jordi BORDONE-FERRARI KTM - Rally Replica 24:36:45 01:12:27
7 020 FARRES GUELL Gerard BORDONE-FERRARI KTM - 450 RALLY REPLICA 24:39:53 01:15:35
8 032 SVITKO Stefan HANT LOGOMOTION SLOVAKIA KTM - 450 RR 24:42:58 01:18:40
9 005 PEDRERO GARCIA Juan KTM MRW RALLY DAKAR EAM KTM - 450cc Rally 24:50:49 01:26:31
10 016 PAIN Olivier TEAM YAMAHA RACING YAMAHA - 450 YZF Rally 25:06:11 01:41:53
11 034 BOTTURI ALESSANDRO BORDONE-FERRARI KTM - 450 RALLY REPLICA 25:06:16 01:41:58
12 006 ULLEVALSETER Pal Anders TEAM ULLEVALSETER KTM - 450 R 25:13:11 01:48:53
13 008 FARIA Ruben TEAM RED BULL KTM KTM - 450 CC RALLY 25:24:09 01:59:51
14 025 GOUET Daniel TAMARUGAL HONDA RACING XC RALLY TEAM HONDA - CRF 450 X 25:40:15 02:15:57
15 028 ZANOL FELIPE KTM BRASIL KTM - 450 Replica 25:46:28 02:22:10
16 017 CZACHOR Jacek ORLEN TEAM KTM - 450 Replica 26:09:10 02:44:52
17 021 AUBERT JOHNNY KTM RALLY FACTORY TEAM KTM - 450 RALLY 26:18:29 02:54:11
18 035 CECI Paolo BORDONE-FERRARI KTM - 450 RR 26:19:54 02:55:36
19 039 GYENES Emanuel VECTRA RACING KTM - 450 RR 26:42:48 03:18:30
20 018 KNUIMAN Henk WIM MOTORS DAKAR KTM - 450 REPLICA 26:42:53 03:18:35
21 024 STANOVNIK Miran TEAM SUGAWARA KTM - 450 R 26:42:54 03:18:36
22 015 VERHOEVEN Frans SHERCO RALLY RAID - CROCOAVENTURES SHERCO - SR 450 26:49:44 03:25:26
23 023 BARREDA BORT Joan HUSQVARNA RALLYE TEAM BY SPEEDBRAIN HUSQVARNA - Rally 450 RR 26:50:22 03:26:04
24 026 RODRIGUES FILHO Jose helio HUSQVARNA RALLYE TEAM BY SPEEDBRAIN HUQSVARNA - RALLY 450 RR 26:52:09 03:27:51
25 012 PELLICER Jose Manuel HUSQVARNA RALLYE TEAM BY SPEEDBRAIN HUSQVARNA - Rally 450 RR 27:17:37 03:53:19
26 043 PISANO Michael MP CONCEPT KTM - 450 RR 27:24:47 04:00:29
27 082 GUINDANI Vincent HFP YAMAHA - YZR 450 27:34:04 04:09:46
28 033 BETHYS Thierry YAMAHA - 450 YZF Rally 27:35:41 04:11:23
29 040 SERRADORI Mathieu KTM - 450 Rally 27:37:55 04:13:37
30 064 SCHRÖDER DANIEL MEMO TOURS - ALFIE COX TEAM KTM - 450cc 27:43:39 04:19:21
31 144 CURTIS Darryl MEMO TOURS - ALFIE COX TEAM KTM - 450 Replica 28:13:42 04:49:24
32 089 NASCIMENTO DENISIO PETROBRAS LUBRAX HONDA - CRF 450 28:22:18 04:58:00
33 042 PROHENS Jaime TAMARUGAL HONDA RACING XC RALLY TEAM HONDA - CRF 450X RALLY 28:34:54 05:10:36
34 041 PROHENS Felipe TAMARUGAL HONDA RACING XC RALLY TEAM HONDA (Transformada) - CRF450X RALLY 28:39:23 05:15:05
35 049 DABROWSKI Marek ORLEN TEAM KTM - 450 RR 28:39:37 05:15:19
36 048 LIEFHEBBER Hans-jos KTM - 450 RR 28:49:53 05:25:35
37 066 LORMAND Etienne ROUSSILL'HOTEL - HFP YAMAHA - 450 WRF 29:04:26 05:40:08
38 145 NUTTALL Dean MEMO TOURS - ALFIE COX TEAM KTM - 450 Replica 29:07:57 05:43:39
39 110 BIRCH Christopher MEMO TOURS - ALFIE COX TEAM KTM - 450 Replica 29:20:06 05:55:48
40 053 RODRIGUEZ Claudio TAMARUGAL HONDA RACING XC RALLY TEAM HONDA - CRF 450 X 29:25:43 06:01:25
41 060 WATT Stanley FRONT ROW GB / CRECENT KTM KTM - 450 RR 30:03:32 06:39:14
42 183 RODRIGUEZ Pablo HONDA RACING ARGENTINA HONDA - CRF450X 30:06:23 06:42:05
43 029 BERGLUND Thomas HUSABERG RALLY TEAM SCANDINAVIA HUSABERG - FE 450 30:34:23 07:10:05
44 051 ARREDONDO Francisco TEAM GUATEMALA KTM - 450 RALLY 30:35:30 07:11:12
45 050 SALVATIERRA Juan Carlos GHR HONDA HONDA - CRF450X 30:43:27 07:19:09
46 067 BALOOSHI MOHAMMED RED BULL KTM - 450 RR 30:47:22 07:23:04
47 045 SANZ PLA-GILIBERT Eulalia GAS GAS GAS - GAS - EC 450 30:51:38 07:27:20
48 062 SCHWARZ David HUSABERG RALLYE RACING AUSTRALIA HUSABERG - FE450 30:56:37 07:32:19
49 138 LECOQ SEBASTIEN TEAM PERFORMANCE ENDURO YAMAHA - 450 YZFE 30:58:51 07:34:33
50 184 SAKIR SENKALAYCI TURKISH TEAM KTM - 450 RALLY EXC 30:59:12 07:34:54
51 046 BIANCHI PRATA Pedro TEAM BIANCHI PRATA / VODAFONE HUSQUARNA - TE449 RALLY 30:59:32 07:35:14
52 057 WILLEMSEN Daniel TEAM HONDA EUROPE HONDA - CRF 450 X 31:02:11 07:37:53
53 071 BUTUZA Marcel BOANO HONDA - CRE F 450 X 31:03:30 07:39:12
54 181 RIOS FELIPE KTM PERU RALLY TEAM KTM - Rally Replica 31:06:46 07:42:28
55 154 GAJDOSECH ROBERTO ANTONIO ATUEL MOTOS YAMAHA - WR 450 31:06:53 07:42:35
56 081 SUESSE NED ADVRIDER/ NEDURO KTM - 450XCW 31:17:35 07:53:17
57 148 GOMEZ Mauricio PACO GOMEZ RALLY TEAM YAMAHA - WR 450 31:31:38 08:07:20
58 185 SANCHEZ MARCELO TEAM RPM KAWASAKI KAWASAKI - KLX 450 R 31:42:47 08:18:29
59 061 MATTOS Dimas BRASIL MOTO TOUR KTM - 450 RR 31:46:08 08:21:50
60 086 MUNK Jes X-RAGE RACING KTM - 450 32:02:54 08:38:36
61 077 PICCO Franco FRANCO PICCO RACING YAMAHA - WRF 450 32:03:36 08:39:18
62 068 BARROT David POWERBIKE YAMAHA IPONE YAMAHA - 450 IZF RALLY 32:04:52 08:40:34
63 168 GUIRAL DEMIAN AVANT MOTOS HONDA GENUINE OIL HONDA - CRF 450X 32:07:40 08:43:22
64 087 MEILLAT Christophe C.M PROMO KAWASAKI - KLX 450 R 32:17:06 08:52:48
65 092 HAMARD Stephane REUNION RALLYE RAID KTM - 450 RR 32:18:56 08:54:38
66 059 CIOTTI Filippo FRANCO PICCO RACING RIEJU - MRT 450 32:33:00 09:08:42
67 056 MENARD Jean-Christophe HFP YAMAHA - 450 YZF 32:39:27 09:15:09
68 065 LAZARD Laurent MOTO TEAM BY ELF YAMAHA - WR 450 32:50:43 09:26:25
69 159 CHITTICK Jamie GHR HONDA HONDA - CRF450X 32:58:54 09:34:36
70 165 MULDER GEERT TEAM HONDA EUROPE HONDA - CFR 450 X 33:03:27 09:39:09
71 149 CIPKA DUSAN SLOVAKIA TURBOTEAM ZATKO BMW - G450X 33:06:59 09:42:41
72 098 BLONDEAU CHRISTOPHE TEAM FRANROC YAMAHA - YZF 450 33:35:40 10:11:22
73 100 VESELY Jan CZECH DAKAR TEAM YAMAHA - WR 450F 33:45:43 10:21:25
74 072 GOUNON SERGE EMS KTM - 450 RR 34:01:22 10:37:04
75 069 PAYEN Hugo YAMAHA - 450 WRF 34:09:02 10:44:44
76 122 PALANTE Eric WIM MOTORS RACING DIVISION KTM - 450 RR FREVA 34:23:39 10:59:21
77 091 TONETTI NICOLA TEAM BOANO HONDA - CRF 450 X 34:37:58 11:13:40
78 164 DEMELCHORI DIEGO TEAM RPM KAWASAKI KAWASAKI - 2009 34:47:45 11:23:27
79 076 PEDERZOLI Claudio ON-OFF RACING TEAM YAMAHA - WR 450 35:03:40 11:39:22
80 093 GOMEZ Jorge VEMOTOR CANARIAS Husqvarna - 450cc 35:12:43 11:48:25
81 074 KOFMAN Erik KTM - 450 RR 35:55:49 12:31:31
82 116 GEOFFROY Christophe TB RACING HONDA - F 450 XE 36:56:40 13:32:22
83 080 PASCUAL Pablo oscar JINCHENG TEAM JINCHENG - JC450Y 37:19:00 13:54:42
84 174 MARTÍNEZ Paco PACO MARTINEZ KAWASAKI - KX450 37:24:52 14:00:34
85 177 VAN GEEL MARCO TEAM HONDA EUROPE HONDA - CFR 450 X 37:32:34 14:08:16
86 073 BONY BRUNO EMS KTM - 450 RR 37:51:10 14:26:52
87 107 BODINGER Ronnie HUSABERG FACTORY TEAM HUSABERG - FE 450 38:16:03 14:51:45
88 150 BELAUSTEGUI Luis FREEDOM RALLY RACING KTM - SX 150 38:43:53 15:19:35
89 022 DUCLOS Alain GIOFIL APRILIA APRILIA - RXV 4.5 Rally 38:46:59 15:22:41
90 176 RAAF Greg MEMO TOURS - ALFIE COX TEAM KTM - 450 Replica 39:22:07 15:57:49
91 131 THEURIOT Herve REVIVAL AVENTURES YAMAHA - 450 WRF 39:45:50 16:21:32
92 102 ALAN Eduardo ELF ARGENTINA Yamaha - WR 450 39:56:27 16:32:09
93 095 MAZET Jean-Claude JCM RALLYE RAID KTM - 450 RR 40:04:24 16:40:06
94 136 IGARIS GINTAUTAS YAMAHA - WR450F 40:16:55 16:52:37
95 151 BEALUSTEGUI Juan Manuel AL LIMITE DAKAR 2012 YAMAHA - WR 450 F 40:49:05 17:24:47
96 085 PENATE MUNOZ Pedro Manuel KH7 VALSEBIKE KTM - 450 41:57:17 18:32:59
97 172 LUCCHESE MANUEL HUSABERG FACTORY TEAM HUSABERG - FE 450 RALLY 45:09:01 21:44:43
98 120 ILLANES Rodrigo TARAPACA RALLY TEAM Husqvarna - TE 449 45:17:26 21:53:08

Créer un site gratuit avec e-monsite - Signaler un contenu illicite sur ce site

×